Tracking 31027 objects as of 19-Jul-2025
HD Live streaming from Space Station
objects crossing your sky now

NATO 3A

Track NATO 3A now!
NATO 3A is classified as:


NORAD ID: 8808
Int'l Code: 1976-035A
Perigee: 35,813.6 km
Apogee: 36,018.2 km
Inclination: 5.7 °
Period: 1,442.3 minutes
Semi major axis: 42286 km
RCS: 7.2313 m2 (large)
Launch date: April 22, 1976
Source: North Atlantic Treaty Organization (NATO)
Launch site: AIR FORCE EASTERN TEST RANGE (AFETR)
Your satellite tracking list
FREGAT DEB
Track 1 satellite(s)




NASA's NSSDC Master Catalog

Two Line Element Set (TLE):
1 08808U 76035A   25199.39000353  .00000071  00000-0  00000-0 0  9992
2 08808   5.7366 299.6311 0024185 315.9639  59.8555  0.99837607743943
Source of the keplerian elements: AFSPC